Tracking 30995 objects as of 5-Jul-2025
HD Live streaming from Space Station
objects crossing your sky now

ONEWEB-0101

Track ONEWEB-0101 now!
10-day predictions
ONEWEB-0101 is classified as:


NORAD ID: 48049
Int'l Code: 2021-025H
Perigee: 1,215.4 km
Apogee: 1,218.4 km
Inclination: 87.9 °
Period: 109.6 minutes
Semi major axis: 7587 km
RCS: Unknown
Launch date: March 25, 2021
Source: United States (US)
Launch site: VOSTOCHNY COSMODROME (VOSTO)
Your satellite tracking list
COSMOS 2219
Track 1 satellite(s)




NASA's NSSDC Master Catalog

Two Line Element Set (TLE):
1 48049U 21025H   25186.61167590  .00000086  00000-0  20075-3 0  9993
2 48049  87.8956  29.1009 0001944  84.4650 275.6700 13.13470372208004
Source of the keplerian elements: AFSPC